Location: Earls Croome
(52.0667°N, 2.2000°W)
Time: 20:20:29
(UTC+00:00)

Cosmos 967 Rocket - Pass Details

Date: 17 November 2019
Orbit: 943 x 994 km, 65.8° (Epoch: 08 December)

Event Time Altitude Azimuth Distance (km) Brightness Sun altitude
Exits shadow 04:48:57 39° 217° (SW) 1,415 5.0 -24.7°
Maximum altitude 04:51:30 88° 131° (SE) 984 4.4 -24.3°
Drops below altitude 10° 04:57:59 10° 41° (NE) 2,752 7.4 -23.3°
Sets 05:00:35 0° 42° (NE) 3,709 8.1 -22.9°
